Weather History for KVLL - November, 2011

Change the Weather History Date:

Tuesday, November 22, 2011

  Actual Average (KDET) Record (KDET)
Temperature  
Mean Temperature 34 °F -  
Max Temperature 37 °F 44 °F 66 °F (1999)
Min Temperature 32 °F 33 °F 15 °F (1956)
Degree Days  
Heating Degree Days 30    
Moisture  
Dew Point 31 °F    
Average Humidity 88    
Maximum Humidity 93    
Minimum Humidity 80    
Precipitation  
Precipitation 0.00 in - - ()
Sea Level Pressure  
Sea Level Pressure 30.11 in    
Wind  
Wind Speed 9 mph (NE)    
Max Wind Speed 20 mph    
Max Gust Speed 24 mph    
Visibility 7 miles    
Events Rain , Snow    
Averages and records for this station are not official NWS values.
T = Trace of Precipitation, MM = Missing Value Source: NWS Daily Summary

Daily Weather History Graph

Daily Weather History Graph

Search for Another Location

Airport or City:

Trip Planner

Search our weather history database for the weather conditions in past years. The results will help you decide how hot, cold, wet, or windy it might be!

Date:

Astronomy

Nov. 22, 2011 Rise Set
Actual Time 7:32 AM EST 5:05 PM EST
Civil Twilight 7:01 AM EST 5:35 PM EST
Nautical Twilight 6:26 AM EST 6:10 PM EST
Astronomical Twilight 5:53 AM EST 6:43 PM EST
Moon 4:18 AM EST (11/22) 3:05 PM EST (11/22)
Length of Visible Light 10h 34m
Length of Day
9h 32m
Waning Crescent, 9% of the Moon is Illuminated
Nov 22
Waning Crescent
Nov 25
New
Dec 2
First Quarter
Dec 10
Full
Dec 17
Last Quarter

Hourly Weather History & Observations

Time (EST) Temp. Windchill Dew Point Humidity Pressure Visibility Wind Dir Wind Speed Gust Speed Precip Events Conditions
12:34 AM 32.0 °F 28.7 °F 28.4 °F 87% 30.30 in 10.0 mi NNE 3.5 mph - N/A   Clear
12:55 AM 32.0 °F 28.7 °F 28.4 °F 87% 30.30 in 10.0 mi NNE 3.5 mph - N/A   Clear
1:14 AM 32.0 °F 28.7 °F 28.4 °F 87% 30.31 in 10.0 mi NE 3.5 mph - N/A   Clear
1:35 AM 32.0 °F 27.5 °F 28.4 °F 87% 30.32 in 10.0 mi NNE 4.6 mph - N/A   Clear
1:55 AM 32.0 °F 25.6 °F 28.4 °F 87% 30.32 in 10.0 mi NNE 6.9 mph - N/A   Clear
2:14 AM 32.0 °F 25.6 °F 28.4 °F 87% 30.32 in 10.0 mi NE 6.9 mph - N/A   Clear
2:35 AM 32.0 °F 24.8 °F 28.4 °F 87% 30.32 in 10.0 mi NNE 8.1 mph - N/A   Clear
2:54 AM 32.0 °F 24.8 °F 28.4 °F 87% 30.32 in 10.0 mi NE 8.1 mph - N/A   Clear
3:15 AM 32.0 °F 24.8 °F 28.4 °F 87% 30.32 in 7.0 mi NE 8.1 mph - N/A   Clear
3:34 AM 32.0 °F 24.8 °F 28.4 °F 87% 30.30 in 7.0 mi NE 8.1 mph - N/A   Clear
3:55 AM 32.0 °F 24.8 °F 28.4 °F 87% 30.29 in 7.0 mi NE 8.1 mph - N/A   Clear
4:14 AM 32.0 °F 24.8 °F 28.4 °F 87% 30.28 in 7.0 mi NNE 8.1 mph - N/A   Clear
4:35 AM 32.0 °F 24.8 °F 26.6 °F 80% 30.28 in 7.0 mi NE 8.1 mph - N/A   Clear
4:55 AM 32.0 °F 25.6 °F 28.4 °F 87% 30.28 in 7.0 mi NE 6.9 mph - N/A   Clear
5:14 AM 32.0 °F 25.6 °F 28.4 °F 87% 30.28 in 7.0 mi NE 6.9 mph - N/A   Clear
5:35 AM 32.0 °F 24.2 °F 28.4 °F 87% 30.28 in 7.0 mi ENE 9.2 mph - N/A   Clear
5:55 AM 32.0 °F 24.8 °F 28.4 °F 87% 30.27 in 7.0 mi NE 8.1 mph - N/A   Scattered Clouds
6:14 AM 32.0 °F 24.8 °F 30.2 °F 93% 30.26 in 5.0 mi NE 8.1 mph - N/A   Mostly Cloudy
6:35 AM 32.0 °F 25.6 °F 30.2 °F 93% 30.26 in 5.0 mi NE 6.9 mph - N/A   Mostly Cloudy
6:55 AM 32.0 °F 24.2 °F 30.2 °F 93% 30.25 in 5.0 mi NE 9.2 mph - N/A   Scattered Clouds
7:15 AM 32.0 °F 23.0 °F 30.2 °F 93% 30.25 in 5.0 mi NE 11.5 mph - N/A   Clear
7:54 AM 32.0 °F 24.2 °F 30.2 °F 93% 30.26 in 5.0 mi NE 9.2 mph - N/A   Scattered Clouds
8:15 AM 32.0 °F 24.2 °F 30.2 °F 93% 30.25 in 5.0 mi ENE 9.2 mph - N/A   Mostly Cloudy
8:35 AM 32.0 °F 24.8 °F 30.2 °F 93% 30.24 in 5.0 mi ENE 8.1 mph - N/A   Overcast
8:55 AM 33.8 °F 25.3 °F 30.2 °F 87% 30.23 in 7.0 mi ENE 11.5 mph - N/A   Overcast
9:15 AM 33.8 °F 24.3 °F 32.0 °F 93% 30.22 in 7.0 mi ENE 13.8 mph - N/A   Overcast
9:35 AM 33.8 °F 25.3 °F 32.0 °F 93% 30.20 in 7.0 mi ENE 11.5 mph - N/A   Overcast
9:55 AM 33.8 °F 25.8 °F 32.0 °F 93% 30.22 in 7.0 mi ENE 10.4 mph 17.3 mph N/A   Overcast
10:14 AM 35.6 °F 27.5 °F 32.0 °F 87% 30.20 in 7.0 mi ENE 11.5 mph - N/A   Overcast
10:35 AM 35.6 °F 28.6 °F 32.0 °F 87% 30.20 in 7.0 mi ENE 9.2 mph - N/A   Overcast
10:54 AM 35.6 °F 27.1 °F 32.0 °F 87% 30.19 in 7.0 mi ENE 12.7 mph - N/A   Overcast
11:15 AM 35.6 °F 28.0 °F 32.0 °F 87% 30.17 in 7.0 mi ENE 10.4 mph 16.1 mph N/A   Overcast
11:35 AM 35.6 °F 28.0 °F 32.0 °F 87% 30.16 in 7.0 mi ENE 10.4 mph 16.1 mph N/A   Overcast
11:54 AM 35.6 °F 27.5 °F 32.0 °F 87% 30.14 in 7.0 mi ENE 11.5 mph - N/A   Overcast
12:35 PM 35.6 °F 27.1 °F 32.0 °F 87% 30.12 in 7.0 mi NE 12.7 mph - N/A   Overcast
1:15 PM 35.6 °F 27.5 °F 32.0 °F 87% 30.08 in 10.0 mi NE 11.5 mph 17.3 mph N/A   Overcast
1:34 PM 35.6 °F 29.2 °F 32.0 °F 87% 30.07 in 10.0 mi NE 8.1 mph - N/A   Overcast
1:55 PM 37.4 °F 30.3 °F 32.0 °F 81% 30.05 in 10.0 mi NE 10.4 mph 18.4 mph N/A   Overcast
2:34 PM 37.4 °F 28.5 °F 32.0 °F 81% 30.01 in 10.0 mi ENE 15.0 mph 18.4 mph N/A   Overcast
2:55 PM 37.4 °F 29.3 °F 32.0 °F 81% 29.97 in 10.0 mi NE 12.7 mph 20.7 mph N/A   Overcast
3:14 PM 37.4 °F 28.9 °F 32.0 °F 81% 29.95 in 10.0 mi NE 13.8 mph 20.7 mph N/A   Light Drizzle
3:35 PM 37.4 °F 29.8 °F 32.0 °F 81% 29.95 in 7.0 mi NE 11.5 mph 19.6 mph N/A Rain Light Rain
3:55 PM 37.4 °F 28.9 °F 32.0 °F 81% 29.94 in 5.0 mi NE 13.8 mph 20.7 mph N/A Rain Light Rain
4:35 PM 37.4 °F 30.3 °F 32.0 °F 81% 29.92 in 3.0 mi NE 10.4 mph 19.6 mph N/A Rain Light Rain
4:55 PM 37.4 °F 29.8 °F 32.0 °F 81% 29.93 in 3.0 mi NE 11.5 mph 17.3 mph N/A Rain Rain
5:14 PM 37.4 °F 29.8 °F 33.8 °F 87% 29.91 in 4.0 mi NE 11.5 mph - N/A Rain Rain
5:35 PM 35.6 °F 26.6 °F 33.8 °F 93% 29.90 in 2.5 mi NE 13.8 mph 19.6 mph N/A   Overcast
5:55 PM 35.6 °F 24.8 °F 33.8 °F 93% 29.87 in 3.0 mi NE 19.6 mph 24.2 mph N/A   Overcast
6:35 PM 35.6 °F 26.6 °F 32.0 °F 87% 29.87 in 7.0 mi NNE 13.8 mph 20.7 mph N/A Rain Light Rain
6:55 PM 35.6 °F 27.1 °F 33.8 °F 93% 29.86 in 3.0 mi NE 12.7 mph 23.0 mph N/A Rain Light Rain
7:15 PM 35.6 °F 27.1 °F 33.8 °F 93% 29.86 in 5.0 mi NE 12.7 mph 17.3 mph N/A Rain Light Rain
7:34 PM 35.6 °F 26.6 °F 33.8 °F 93% 29.84 in 3.0 mi NE 13.8 mph 21.9 mph N/A Snow Light Snow
7:55 PM 35.6 °F 26.2 °F 33.8 °F 93% 29.84 in 2.5 mi NE 15.0 mph 23.0 mph N/A Rain Light Rain
8:15 PM 35.6 °F 26.6 °F 33.8 °F 93% 29.83 in 2.5 mi NE 13.8 mph 23.0 mph N/A Rain Light Rain
8:34 PM 35.6 °F 25.5 °F 33.8 °F 93% 29.82 in 3.0 mi NNE 17.3 mph 23.0 mph N/A Rain Light Rain
8:55 PM 35.6 °F 27.1 °F 33.8 °F 93% 29.82 in 2.5 mi NNE 12.7 mph 21.9 mph N/A   Overcast
9:14 PM 35.6 °F 26.6 °F 33.8 °F 93% 29.81 in 7.0 mi NNE 13.8 mph 24.2 mph N/A Rain Light Rain
9:35 PM 35.6 °F 27.5 °F 33.8 °F 93% 29.80 in 7.0 mi North 11.5 mph 20.7 mph N/A   Drizzle
10:14 PM 37.4 °F 28.2 °F 33.8 °F 87% 29.78 in 5.0 mi NNE 16.1 mph 24.2 mph N/A Rain Light Rain
10:35 PM 37.4 °F 27.5 °F 33.8 °F 87% 29.77 in 7.0 mi NNE 18.4 mph 27.6 mph N/A Rain Light Rain
10:55 PM 37.4 °F 27.5 °F 33.8 °F 87% 29.76 in 7.0 mi NNE 18.4 mph 26.5 mph N/A Rain Light Rain
11:14 PM 37.4 °F 28.9 °F 35.6 °F 93% 29.77 in 7.0 mi North 13.8 mph 26.5 mph N/A Rain Light Rain
11:35 PM 37.4 °F 28.9 °F 35.6 °F 93% 29.79 in 7.0 mi NNE 13.8 mph 21.9 mph N/A Rain Rain
11:55 PM 37.4 °F 28.2 °F 35.6 °F 93% 29.79 in 3.0 mi North 16.1 mph 25.3 mph N/A   Overcast